Regional Weather Roundup
Issued by NWS

Home | Current Version | Previous Version | Text Only | Print | Product List | Glossary On
Versions: 1 2 3 4 5 6 7 8 9 10 11 12 13 14 15 16 17 18 19 20 21 22 23 24 25 26 27 28 29 30 31 32 33 34 35 36 37 38 39 40 41 42 43 44 45 46 47 48 49 50
668
ASUS45 KABQ 041810
RWRNM
NEW MEXICO REGIONAL WEATHER ROUNDUP
NATIONAL WEATHER SERVICE ALBUQUERQUE NM
1200 PM MDT WED MAY 04 2016

NOTE: "FAIR" MEANS FEW OR NO CLOUDS BELOW 12,000 FEET AGL WITH NO
       SIGNIFICANT WEATHER OR OBSTRUCTIONS TO VISION.

      THIS PRODUCT IS RELEASED AS TWO VERSIONS.  ONE VERSION NEAR
      THE TOP OF THE HOUR CONTAINING PRELIMINARY DATA FROM ALBUQUERQUE
      AND OTHER STATIONS.  A FINAL VERSION WITH ADDITIONAL DATA IS
      ISSUED ABOUT 10 MINUTES AFTER THE HOUR.

NMZ501-503-504-510>518-041900-
NORTHWEST PLATEAU/NORTHCENTRAL MOUNTAINS

CITY           SKY/WX    TMP DP  RH WIND       PRES   REMARKS
FARMINGTON     FAIR      71  30  21 E6        30.27F
6HR MIN TEMP:  44; 6HR MAX TEMP:  71;

LOS ALAMOS     FAIR     N/A N/A N/A E5        30.39F
SANTA FE       FAIR      69  21  16 MISG      30.34F
6HR MIN TEMP:  36; 6HR MAX TEMP:  69;

TAOS           FAIR      61  27  27 CALM      30.38F
ANGEL FIRE     FAIR      60  19  20 E5        30.41F

$$
NMZ402-403-502-505>509-041900-
WESTCENTRAL MOUNTAINS/SOUTHWEST MOUNTAINS

CITY           SKY/WX    TMP DP  RH WIND       PRES   REMARKS
GALLUP         FAIR      69  25  19 E8        30.31F
6HR MIN TEMP:  33; 6HR MAX TEMP:  69;

GRANTS         FAIR      66  32  28 SE16      30.36F
SILVER CITY      N/A     72  28  20 SE12G24   30.31S

$$
NMZ407-409-411-412-041900-
SOUTHERN DESERTS

CITY           SKY/WX    TMP DP  RH WIND       PRES   REMARKS
LORDSBURG      FAIR      79  32  18 E24G36    30.20F
DEMING         FAIR      78  32  18 E13G21    30.23F
6HR MIN TEMP:  52; 6HR MAX TEMP:  78;

LAS CRUCES     FAIR      76  29  17 SE10G20   30.27S
HOLLOMAN AFB   FAIR      74  29  19 SE1       30.24F
ALAMOGORDO     FAIR      72  28  20 CALM      30.26F
T OR C         FAIR      73  29  19 SE7       30.27F
6HR MIN TEMP:  49; 6HR MAX TEMP:  74;


$$
NMZ519>523-041900-
CENTRAL VALLEYS/CENTRAL HIGHLANDS

CITY           SKY/WX    TMP DP  RH WIND       PRES   REMARKS
ALBUQUERQUE    FAIR      70  29  21 SW6       30.31F
6HR MIN TEMP:  50; 6HR MAX TEMP:  70;

DOUBLE EAGLE   SUNNY     68  30  24 W3        30.34F
MORIARTY ARPT  FAIR      68  16  13 SE6       30.36F
6HR MIN TEMP:  25; 6HR MAX TEMP:  69;

CLINES CORNERS FAIR      65  23  20 S8        30.36F
6HR MIN TEMP:  40; 6HR MAX TEMP:  65;

BELEN          FAIR      70  28  21 CALM      30.30F
6HR MIN TEMP:  39; 6HR MAX TEMP:  70;

SOCORRO        FAIR      73  26  17 E3        30.28F
6HR MIN TEMP:  44; 6HR MAX TEMP:  74;


$$
NMZ524>526-539-540-041900-
SOUTHCENTRAL MOUNTAINS

CITY           SKY/WX    TMP DP  RH WIND       PRES   REMARKS
RUIDOSO          N/A     64  10  12 S3        30.39F

$$
NMZ527>531-041900-
NORTHEAST HIGHLANDS/NORTHEAST PLAINS

CITY           SKY/WX    TMP DP  RH WIND       PRES   REMARKS
LAS VEGAS      FAIR      63  23  21 SW6       30.36F
6HR MIN TEMP:  34; 6HR MAX TEMP:  64;

RATON          FAIR      66  25  21 MISG      30.30F
6HR MIN TEMP:  31; 6HR MAX TEMP:  66;

CLAYTON        FAIR      71  34  25 E5        30.25F
6HR MIN TEMP:  48; 6HR MAX TEMP:  72;


$$
NMZ532>537-041900-
EASTCENTRAL PLAINS

CITY           SKY/WX    TMP DP  RH WIND       PRES   REMARKS
TUCUMCARI      FAIR      76  28  17 VRB6      30.23F
6HR MIN TEMP:  41; 6HR MAX TEMP:  76;

CANNON AFB     FAIR      73  29  19 N9G21     30.24F
6HR MIN TEMP:  46; 6HR MAX TEMP:  74;

CLOVIS AIRPORT FAIR      73  36  25 N13       30.25F

$$
NMZ028-029-538-041900-
SOUTHEAST PLAINS

CITY           SKY/WX    TMP DP  RH WIND       PRES   REMARKS
ROSWELL        FAIR      76  29  17 VRB5      30.24F
6HR MIN TEMP:  42; 6HR MAX TEMP:  76;

ARTESIA        FAIR      75  32  20 E8        30.24F
CARLSBAD       FAIR      77  27  15 VRB6      30.22F
6HR MIN TEMP:  46; 6HR MAX TEMP:  77;

HOBBS          SUNNY     75  25  15 N5        30.24F


$$




USA.gov is the U.S. government's official web portal to all federal, state and local government web resources and services.